DateTime,F1_A11,F1_S11,BsB_S11,BsG_S11,BsR_S11,BbsB_S11,BbsG_S11,BbsR_S11,BaB_A11,BaG_A11,BaR_A11,T_S11,U_S11,P_S11,T1_A11
2016-10-06T00:00:00Z,0000380,20000600,,,,,,,,,,26.8,01.8,0662.8,34.7
2016-10-06T00:01:00Z,0000380,20000600,,,,,,,,,,26.8,01.8,0662.8,34.7
2016-10-06T00:02:00Z,0000380,20000600,,,,,,,,,,26.8,01.8,0662.7,34.7
2016-10-06T00:03:00Z,0000380,60000600,,,,,,,,,,26.9,01.7,0662.7,34.7
2016-10-06T00:04:00Z,0000380,40000600,0001.12,0000.43,0000.97,-000.43,0000.06,-000.18,-000.12,-000.15,0000.41,26.8,01.8,0663.7,34.7
2016-10-06T00:05:00Z,0000380,00000600,-000.18,0000.75,0000.73,0000.22,0000.06,0000.11,0000.14,0000.34,0000.18,26.8,01.7,0663.7,34.7
2016-10-06T00:06:00Z,0000380,00000600,0000.96,0000.71,0000.82,-000.22,0000.29,0000.08,0000.12,0000.08,-000.17,26.8,01.8,0663.7,34.7
2016-10-06T00:07:00Z,0000380,00000600,0000.72,0000.63,0000.62,0000.26,0000.35,-000.19,0000.12,0000.17,0000.38,26.9,01.8,0663.8,34.7
2016-10-06T00:08:00Z,0000380,00000600,0001.08,0001.10,0000.20,0000.30,0000.59,0000.61,0000.01,0000.04,-000.24,26.9,01.7,0663.8,34.7
2016-10-06T00:09:00Z,0000380,00000600,0000.82,0000.00,0000.53,0000.89,0000.38,0000.00,0000.01,0000.07,-000.10,26.9,01.8,0663.8,34.7
2016-10-06T00:10:00Z,0000380,00000600,0000.08,0000.64,0000.28,-000.03,0000.03,0000.18,-000.05,-000.12,0000.06,26.9,01.8,0663.8,34.7
2016-10-06T00:11:00Z,0000380,00000600,-000.06,0000.27,0000.53,0000.40,-000.25,0000.06,0000.07,-000.04,-000.00,26.9,01.7,0663.8,34.7
2016-10-06T00:12:00Z,0000380,00000600,0001.02,0000.10,0000.86,-000.24,-000.19,-000.14,0000.04,0000.02,-000.21,26.8,01.8,0663.7,34.7
2016-10-06T00:13:00Z,0000380,00000600,-000.15,0001.22,0000.80,-000.03,0000.33,0000.18,0000.05,0000.05,0000.22,26.8,01.8,0663.7,34.7
2016-10-06T00:14:00Z,0000380,00000600,0000.92,0000.46,0000.22,0000.37,-000.29,-000.05,-000.06,0000.00,-000.23,26.8,01.8,0663.7,34.7
2016-10-06T00:15:00Z,0000380,00000600,0000.95,0000.47,0000.55,0000.24,-000.24,0000.26,0000.16,0000.16,0000.06,26.8,01.7,0663.7,34.7
2016-10-06T00:16:00Z,0000380,00000600,0001.37,0001.04,0000.57,-000.03,0000.27,0000.08,0000.08,0000.05,0000.32,26.8,01.8,0663.7,34.7
2016-10-06T00:17:00Z,0000380,00000600,0000.31,0000.14,-000.25,0000.19,0000.14,-000.24,-000.11,-000.02,-000.12,26.8,01.6,0663.7,34.7
2016-10-06T00:18:00Z,0000380,00000600,0001.49,0000.47,0000.91,-000.18,-000.16,0000.00,-000.07,0000.00,0000.27,26.8,01.7,0663.7,34.7
2016-10-06T00:19:00Z,0000380,00000600,-000.21,0000.82,0000.59,-000.02,0000.03,0000.11,0000.13,0000.08,-000.20,26.8,01.8,0663.6,34.7
2016-10-06T00:20:00Z,0000380,00000600,0001.23,0000.49,0000.22,-000.03,0000.29,-000.46,0000.17,0000.08,0000.24,26.8,01.8,0663.7,34.7
2016-10-06T00:21:00Z,0000380,00000600,0000.65,-000.07,0000.13,0000.62,0000.17,0000.26,0000.11,0000.05,-000.41,26.8,01.7,0663.7,34.7
2016-10-06T00:22:00Z,0000380,00000600,0000.31,0000.37,0000.57,0000.65,0000.41,-000.19,-000.14,-000.06,0000.21,26.7,01.7,0663.7,34.7
2016-10-06T00:23:00Z,0000380,00000600,0000.91,0001.25,0000.71,-000.40,-000.37,0000.24,0000.25,0000.27,-000.06,26.7,01.7,0663.6,34.7
2016-10-06T00:24:00Z,0000380,00000600,0001.13,0000.50,0000.50,-000.10,-000.24,0000.10,-000.22,-000.18,-000.06,26.7,01.7,0663.6,34.7
2016-10-06T00:25:00Z,0000380,00000600,0000.16,0000.72,0000.59,-000.11,0000.02,-000.06,0000.12,0000.09,0000.09,26.7,01.7,0663.6,34.7
2016-10-06T00:26:00Z,0000380,00000600,0000.67,0001.14,0000.86,0000.30,0000.24,0000.21,0000.10,0000.12,-000.13,26.7,01.7,0663.6,34.7
2016-10-06T00:27:00Z,0000380,00000600,0000.74,0000.75,0000.59,-000.35,0000.22,0000.19,0000.11,-000.15,0000.04,26.7,01.7,0663.5,34.7
2016-10-06T00:28:00Z,0000380,00000600,0002.04,0000.48,0000.79,0000.33,0000.25,0000.64,-000.08,0000.21,-000.05,26.7,01.7,0663.5,34.7
2016-10-06T00:29:00Z,0000380,00000600,-000.30,0000.90,0000.53,0000.40,0000.52,0000.21,0000.17,-000.23,0000.06,26.6,01.7,0663.6,34.7
2016-10-06T00:30:00Z,0000380,00000600,0000.67,0000.75,0000.55,0000.11,-000.14,0000.22,0000.02,0000.39,0000.35,26.7,01.7,0663.6,34.7
2016-10-06T00:31:00Z,0000380,00000600,0000.34,0000.53,0000.18,0000.27,-000.44,0000.40,0000.12,-000.29,-000.16,26.6,01.6,0663.6,34.7
2016-10-06T00:32:00Z,0000380,00000600,0001.57,0000.85,0000.48,0000.30,0000.49,-000.02,0000.02,0000.26,0000.31,26.6,01.6,0663.6,34.7
2016-10-06T00:33:00Z,0000380,00000600,0001.44,0000.46,0001.07,0000.14,0000.33,0000.34,-000.02,0000.05,-000.44,26.6,01.6,0663.5,34.7
2016-10-06T00:34:00Z,0000380,00000600,0000.95,0000.53,0001.04,0000.06,0000.32,0000.03,0000.05,-000.01,0000.38,26.6,01.7,0663.5,34.7
2016-10-06T00:35:00Z,0000380,00000600,0000.62,0000.26,0000.41,-000.33,0000.10,0000.21,0000.09,0000.08,0000.06,26.6,01.7,0663.4,34.7
2016-10-06T00:36:00Z,0000380,00000600,0000.82,0000.99,0000.18,-000.08,0000.59,0000.11,0000.08,0000.12,0000.29,26.6,01.7,0663.4,34.7
2016-10-06T00:37:00Z,0000380,00000600,0000.55,0000.11,0000.26,0000.45,-000.11,-000.03,0000.09,0000.11,-000.14,26.5,01.7,0663.3,34.7
2016-10-06T00:38:00Z,0000380,00000600,0000.57,0000.42,0000.22,-000.40,0000.11,-000.05,0000.03,0000.08,0000.19,26.5,01.7,0663.4,34.7
2016-10-06T00:39:00Z,0000380,00000600,0000.64,0000.11,0000.59,-000.25,-000.41,0000.18,0000.17,0000.05,-000.10,26.5,01.7,0663.3,34.7
2016-10-06T00:40:00Z,0000380,00000600,0000.81,-000.44,0000.08,-000.10,0000.40,0000.10,-000.07,-000.07,-000.17,26.5,01.7,0663.3,34.7
2016-10-06T00:41:00Z,0000380,00000600,0000.24,0000.02,0000.43,0000.03,0000.06,0000.26,0000.00,0000.01,0000.35,26.5,01.7,0663.3,34.7
2016-10-06T00:42:00Z,0000380,00000600,0000.19,0000.07,0000.58,-000.16,-000.08,0000.16,0000.14,0000.09,-000.20,26.5,01.8,0663.3,34.7
2016-10-06T00:43:00Z,0000380,00000600,0001.10,0000.68,0000.29,-000.05,0000.06,0000.22,-000.04,0000.10,0000.21,26.5,01.7,0663.3,34.7
2016-10-06T00:44:00Z,0000380,00000600,0001.19,0000.27,0000.51,-000.13,0000.00,0000.34,0000.14,-000.05,-000.18,26.5,01.8,0663.3,34.7
2016-10-06T00:45:00Z,0000380,00000600,0000.73,0000.73,0000.49,-000.10,0000.10,-000.18,0000.04,0000.21,0000.22,26.5,01.8,0663.2,34.7
2016-10-06T00:46:00Z,0000380,00000600,0000.96,0000.65,0000.48,0000.24,-000.05,0000.00,0000.15,0000.17,-000.01,26.5,01.8,0663.2,34.7
2016-10-06T00:47:00Z,0000380,00000600,0001.08,0000.70,0000.65,0000.21,0000.05,0000.11,-000.20,-000.17,-000.04,26.5,01.8,0663.3,34.7
2016-10-06T00:48:00Z,0000380,00000600,0000.21,0001.43,0000.53,0000.46,0000.30,0000.10,0000.33,0000.00,0000.12,26.4,01.7,0663.2,34.7
2016-10-06T00:49:00Z,0000380,00000600,0001.55,0001.00,0000.20,0000.06,-000.08,0000.18,-000.04,-000.00,-000.28,26.4,01.8,0663.2,34.7
2016-10-06T00:50:00Z,0000380,00000600,0000.39,0000.68,0000.45,0000.18,-000.16,0000.05,-000.09,0000.05,0000.31,26.4,01.8,0663.1,34.7
2016-10-06T00:51:00Z,0000380,00000600,0001.18,0000.37,0000.88,0000.27,0000.24,0000.22,0000.05,0000.08,-000.01,26.4,01.8,0663.1,34.7
2016-10-06T00:52:00Z,0000380,00000600,0000.60,0000.70,0000.38,0000.00,0000.19,-000.02,0000.36,0000.10,-000.03,26.4,01.9,0663.1,34.7
2016-10-06T00:53:00Z,0000380,00000600,0000.97,0001.16,0000.75,0000.14,-000.14,0000.40,-000.10,-000.04,-000.02,26.3,01.8,0663.1,34.7
2016-10-06T00:54:00Z,0000380,00000600,0002.24,0001.00,-000.18,-000.03,0000.51,-000.27,0000.23,0000.07,0000.46,26.3,01.8,0663.1,34.7
2016-10-06T00:55:00Z,0000380,00000600,0000.46,0000.95,0000.63,0000.18,-000.03,0000.11,0000.01,0000.05,-000.03,26.3,01.8,0663.1,34.7
2016-10-06T00:56:00Z,0000380,00000600,0000.78,0000.61,0000.27,0000.40,0000.11,0000.22,-000.03,0000.10,-000.07,26.3,01.8,0663.1,34.7
2016-10-06T00:57:00Z,0000380,40000600,,,,,,,,,,,,0663.1,34.7
2016-10-06T00:58:00Z,0000380,60000600,,,,,,,,,,26.3,01.6,0662.1,34.7
2016-10-06T00:59:00Z,0000380,20000600,,,,,,,,,,26.3,01.7,0662.0,34.7
2016-10-06T01:00:00Z,0000380,20000600,,,,,,,,,,26.3,01.7,0662.1,34.6
2016-10-06T01:01:00Z,0000380,20000600,,,,,,,,,,26.3,01.7,0662.0,34.6
2016-10-06T01:02:00Z,0000380,20000600,,,,,,,,,,26.3,01.7,0662.0,34.6
2016-10-06T01:03:00Z,0000380,60000600,,,,,,,,,,26.3,01.7,0662.0,34.6
2016-10-06T01:04:00Z,0000380,40000600,0001.48,0000.95,0000.83,0000.59,-000.10,-000.13,0000.19,0000.13,0000.14,26.3,01.9,0662.9,34.6
2016-10-06T01:05:00Z,0000380,00000600,0000.97,0000.99,0000.58,0000.14,0000.10,0000.00,-000.01,-000.05,0000.22,26.3,01.8,0663.0,34.6
2016-10-06T01:06:00Z,0000380,00000600,0001.07,0000.74,0001.00,0000.19,-000.08,-000.27,0000.27,0000.22,0000.47,26.3,01.9,0662.9,34.6
2016-10-06T01:07:00Z,0000380,00000600,0001.66,0000.76,0000.46,-000.02,0000.30,0000.30,0000.00,0000.05,-000.02,26.3,01.8,0662.9,34.6
2016-10-06T01:08:00Z,0000380,00000600,0001.26,0000.91,0000.85,0000.14,0000.56,0000.24,-000.17,0000.08,0000.01,26.3,01.9,0662.9,34.6
2016-10-06T01:09:00Z,0000380,00000600,0001.32,0000.74,0001.33,-000.18,0000.22,0000.16,0000.03,0000.10,0000.05,26.4,01.8,0662.9,34.6
2016-10-06T01:10:00Z,0000380,00000600,0000.94,0001.12,0000.27,-000.16,0000.30,0000.00,0000.35,0000.00,0000.10,26.5,01.8,0662.9,34.6
2016-10-06T01:11:00Z,0000380,00000600,0001.94,0000.92,0000.52,-000.51,0000.10,-000.03,-000.28,0000.10,-000.25,26.5,01.8,0662.8,34.6
2016-10-06T01:12:00Z,0000380,00000600,0001.51,0000.96,0000.85,0000.03,0000.00,-000.06,0000.05,0000.04,0000.02,26.5,01.8,0662.8,34.6
2016-10-06T01:13:00Z,0000380,00000600,0002.08,0000.02,0000.52,0000.59,0000.13,0000.26,0000.21,0000.06,-000.20,26.5,01.7,0662.8,34.6
2016-10-06T01:14:00Z,0000380,00000600,0001.05,0000.95,0000.70,-000.22,0000.41,0000.53,-000.02,0000.04,0000.18,26.5,01.8,0662.8,34.6
2016-10-06T01:15:00Z,0000380,00000600,0001.15,0001.55,0000.94,0000.05,0000.19,-000.16,-000.09,-000.03,-000.10,26.5,01.8,0662.7,34.7
2016-10-06T01:16:00Z,0000380,00000600,0000.53,0000.67,0000.83,0000.02,0000.52,0000.03,0000.04,0000.23,0000.15,26.5,01.7,0662.8,34.7
2016-10-06T01:17:00Z,0000380,00000600,0002.18,0001.28,0000.48,-000.05,0000.48,0000.53,0000.08,-000.25,-000.14,26.5,01.8,0662.8,34.7
2016-10-06T01:18:00Z,0000380,00000600,0000.57,0001.20,0000.40,-000.03,0000.10,-000.34,0000.03,-000.08,0000.22,26.5,01.8,0662.7,34.7
2016-10-06T01:19:00Z,0000380,00000600,0001.58,0000.93,0000.31,-000.14,0000.21,-000.27,-000.01,0000.23,0000.31,26.5,01.8,0662.7,34.7
2016-10-06T01:20:00Z,0000380,00000600,0001.13,0000.73,0000.33,-000.24,0000.32,-000.32,0000.21,-000.01,-000.00,26.5,01.8,0662.7,34.7
2016-10-06T01:21:00Z,0000380,00000600,0001.61,0001.22,0000.56,0000.29,0000.35,-000.16,-000.03,0000.13,0000.02,26.5,01.8,0662.7,34.7
2016-10-06T01:22:00Z,0000380,00000600,0001.12,0000.99,0000.77,-000.54,0000.38,-000.10,0000.05,-000.06,0000.48,26.5,01.8,0662.7,34.7
2016-10-06T01:23:00Z,0000380,00000600,0000.81,0000.66,0000.77,0000.00,0000.40,0000.21,0000.07,0000.18,-000.32,26.5,01.8,0662.7,34.7
2016-10-06T01:24:00Z,0000380,00000600,0001.76,0001.05,0001.04,0000.62,0000.81,0000.13,-000.01,-000.09,-000.20,26.6,01.8,0662.7,34.7
2016-10-06T01:25:00Z,0000380,00000600,0001.17,0000.07,0000.33,-000.94,-000.13,-000.18,0000.05,0000.07,0000.04,26.6,01.8,0662.7,34.7
2016-10-06T01:26:00Z,0000380,00000600,0001.14,-000.02,0000.94,-000.51,-000.10,0000.03,-000.06,0000.23,0000.11,26.7,01.8,0662.7,34.7
2016-10-06T01:27:00Z,0000380,00000600,0001.00,0001.26,0000.48,-000.75,0000.08,-000.11,0000.12,-000.05,-000.05,26.7,01.8,0662.6,34.7
2016-10-06T01:28:00Z,0000380,00000600,0001.08,0001.70,0000.62,0000.19,0000.03,0000.10,0000.02,0000.16,0000.21,26.8,01.7,0662.7,34.7
2016-10-06T01:29:00Z,0000380,00000600,0001.46,0000.63,0001.03,-000.38,0000.10,0000.66,0000.03,-000.11,-000.25,26.8,01.7,0662.7,34.7
2016-10-06T01:30:00Z,0000380,00000600,-000.06,0000.72,0000.66,-000.56,0000.52,-000.03,0000.16,0000.00,0000.05,26.8,01.7,0662.7,34.7
2016-10-06T01:31:00Z,0000380,00000600,0001.02,0000.82,0000.82,0000.34,0000.37,0000.46,-000.28,-000.01,0000.27,26.8,01.7,0662.8,34.7
2016-10-06T01:32:00Z,0000380,00000600,0000.62,0000.65,0000.75,-000.40,0000.30,-000.29,0000.36,0000.19,0000.10,26.8,01.7,0662.6,34.7
2016-10-06T01:33:00Z,0000380,00000600,0002.07,0000.54,-000.02,-000.06,0000.48,-000.35,-000.14,-000.03,-000.56,26.7,01.8,0662.6,34.7
2016-10-06T01:34:00Z,0000380,00000600,0000.53,0000.86,0000.65,-000.14,0000.14,-000.10,0000.16,0000.05,0000.31,26.7,01.7,0662.6,34.7
2016-10-06T01:35:00Z,0000380,00000600,0001.52,0000.90,0000.50,0000.85,0000.32,0000.10,0000.11,-000.05,0000.10,26.7,01.7,0662.6,34.7
2016-10-06T01:36:00Z,0000380,00000600,-000.02,0000.63,0000.54,0000.48,0000.06,-000.11,-000.05,0000.11,0000.22,26.7,01.7,0662.6,34.7
2016-10-06T01:37:00Z,0000380,00000600,0001.11,0000.75,0000.79,0000.35,0000.83,0000.00,0000.15,0000.03,0000.03,26.8,01.6,0662.5,34.7
2016-10-06T01:38:00Z,0000380,00000600,0001.07,0000.42,0001.15,0000.32,0000.13,0000.13,-000.07,0000.03,-000.16,26.8,01.8,0662.5,34.7
2016-10-06T01:39:00Z,0000380,00000600,0000.74,0000.83,0000.37,-000.13,0000.14,-000.13,0000.17,0000.03,-000.01,26.8,01.8,0662.5,34.7
2016-10-06T01:40:00Z,0000380,00000600,0001.46,0000.39,0000.78,0000.18,0000.18,0000.22,-000.22,0000.33,0000.23,26.9,01.8,0662.5,34.7
2016-10-06T01:41:00Z,0000380,00000600,0001.27,0000.90,0001.03,0000.70,0000.60,0000.08,0000.31,-000.09,0000.06,26.9,01.7,0662.6,34.7
2016-10-06T01:42:00Z,0000380,00000600,0000.79,0000.69,0000.45,-000.05,0000.06,-000.10,0000.11,0000.15,-000.18,26.9,01.8,0662.5,34.7
2016-10-06T01:43:00Z,0000380,00000600,0001.26,0001.06,0000.76,0000.24,-000.22,-000.06,-000.09,-000.10,0000.21,26.9,01.7,0662.5,34.7
2016-10-06T01:44:00Z,0000380,00000600,0000.98,0000.81,0000.40,-000.70,0000.19,0000.18,0000.02,-000.16,-000.26,26.9,01.7,0662.6,34.7
2016-10-06T01:45:00Z,0000380,00000600,0001.79,0001.45,0000.51,-000.43,0000.27,0000.37,0000.11,0000.01,0000.05,26.9,01.7,0662.5,34.7
2016-10-06T01:46:00Z,0000380,00000600,0001.88,0000.71,0000.57,-000.24,0000.08,-000.19,-000.35,0000.17,-000.08,26.9,01.8,0662.5,34.7
2016-10-06T01:47:00Z,0000380,00000600,0000.11,0000.64,0000.56,-000.13,0000.11,-000.24,0000.34,0000.03,0000.01,26.9,01.7,0662.5,34.7
2016-10-06T01:48:00Z,0000380,00000600,0001.14,0000.92,0001.13,0000.51,-000.05,-000.30,0000.08,0000.13,0000.25,26.9,01.8,0662.5,34.7
2016-10-06T01:49:00Z,0000380,00000600,0000.88,0001.41,0000.05,-000.58,0000.35,-000.21,-000.16,-000.12,0000.23,26.9,01.8,0662.5,34.7
2016-10-06T01:50:00Z,0000380,00000600,0000.83,0001.33,0000.84,-000.57,0000.27,0000.34,0000.26,-000.06,0000.24,26.8,01.8,0662.5,34.7
2016-10-06T01:51:00Z,0000380,00000600,0001.49,0000.61,0000.59,0000.16,0000.35,-000.34,-000.09,0000.36,-000.29,26.9,01.8,0662.5,34.7
2016-10-06T01:52:00Z,0000380,00000600,0000.38,0000.99,0000.83,0000.27,0000.49,-000.02,0000.16,-000.05,0000.03,26.9,01.8,0662.5,34.7
2016-10-06T01:53:00Z,0000380,00000600,0000.10,-000.06,0000.45,0000.11,0000.18,-000.10,-000.08,0000.13,0000.17,26.9,01.8,0662.4,34.7
2016-10-06T01:54:00Z,0000380,00000600,0000.52,0001.36,0000.67,-000.29,-000.24,0000.29,0000.03,0000.15,-000.17,27.0,01.8,0662.5,34.7
2016-10-06T01:55:00Z,0000380,00000600,0001.06,0000.46,0000.61,-000.08,0000.32,0000.19,0000.32,-000.27,-000.07,27.0,01.8,0662.5,34.7
2016-10-06T01:56:00Z,0000380,00000600,0001.70,0000.33,0000.30,0000.18,-000.06,-000.14,-000.37,0000.16,-000.01,26.9,01.8,0662.5,34.7
2016-10-06T01:57:00Z,0000380,40000600,,,,,,,,,,,,0662.3,34.7
2016-10-06T01:58:00Z,0000380,60000600,,,,,,,,,,26.8,01.7,0661.5,34.7
2016-10-06T01:59:00Z,0000380,20000600,,,,,,,,,,26.8,01.7,0661.4,34.7
2016-10-06T02:00:00Z,0000380,20000600,,,,,,,,,,26.8,01.7,0661.4,34.7
2016-10-06T02:01:00Z,0000380,20000600,,,,,,,,,,26.8,01.7,0661.4,34.7
2016-10-06T02:02:00Z,0000380,20000600,,,,,,,,,,26.8,01.7,0661.4,34.7
2016-10-06T02:03:00Z,0000380,60000600,,,,,,,,,,26.8,01.7,0661.4,34.7
2016-10-06T02:04:00Z,0000380,40000600,0000.54,0000.88,0000.22,0000.48,0000.51,0000.18,-000.11,-000.01,0000.19,26.8,01.8,0662.3,34.7
2016-10-06T02:05:00Z,0000380,00000600,0000.67,0000.82,0000.16,0000.16,0000.03,0000.35,0000.08,0000.14,-000.09,26.8,01.8,0662.3,34.7
2016-10-06T02:06:00Z,0000380,00000600,0001.41,0000.62,0000.36,-000.08,0000.41,0000.19,-000.02,-000.10,-000.10,26.8,01.7,0662.3,34.7
2016-10-06T02:07:00Z,0000380,00000600,0000.78,0000.63,0000.70,0000.40,0000.35,0000.24,-000.12,0000.20,0000.14,26.8,01.8,0662.3,34.7
2016-10-06T02:08:00Z,0000380,00000600,0001.32,0000.09,0000.38,0000.54,0000.27,0000.27,0000.17,-000.01,0000.04,26.8,01.8,0662.3,34.7
2016-10-06T02:09:00Z,0000380,00000600,0001.16,0000.70,0000.45,0000.06,0000.16,-000.14,-000.18,-000.05,-000.23,26.8,01.8,0662.3,34.7
2016-10-06T02:10:00Z,0000380,00000600,0000.56,0000.61,-000.13,0000.02,0000.14,-000.03,0000.17,-000.04,0000.11,26.7,01.7,0662.3,34.7
2016-10-06T02:11:00Z,0000380,00000600,0000.15,0000.69,0000.86,0000.43,0000.41,0000.02,0000.05,0000.21,0000.38,26.7,01.8,0662.3,34.7
2016-10-06T02:12:00Z,0000380,00000600,0000.50,0000.43,0000.25,0000.26,0000.24,-000.38,0000.16,-000.12,-000.07,26.7,01.8,0662.3,34.7
2016-10-06T02:13:00Z,0000380,00000600,0000.99,0000.26,0000.69,-000.03,0000.70,-000.18,-000.09,0000.01,-000.37,26.7,01.8,0662.3,34.7
2016-10-06T02:14:00Z,0000380,00000600,0000.82,0000.70,0000.44,0000.35,0000.27,-000.13,0000.05,-000.01,0000.34,26.7,01.8,0662.3,34.7
2016-10-06T02:15:00Z,0000380,00000600,0000.58,0000.65,0000.44,-000.73,-000.24,0000.00,-000.17,0000.05,-000.01,26.7,01.8,0662.3,34.7
2016-10-06T02:16:00Z,0000380,00000600,0000.57,0000.92,0000.52,0000.35,0000.06,0000.40,0000.32,0000.07,0000.09,26.7,01.8,0662.3,34.7
2016-10-06T02:17:00Z,0000380,00000600,0001.82,0000.96,0000.39,0000.21,0000.16,-000.13,-000.07,0000.14,-000.23,26.7,01.8,0662.3,34.7
2016-10-06T02:18:00Z,0000380,00000600,-000.04,0000.60,0000.14,-000.18,0000.21,0000.22,-000.20,-000.02,-000.27,26.6,01.9,0662.3,34.7
2016-10-06T02:19:00Z,0000380,00000600,0000.51,0000.97,0000.29,-000.37,0000.19,-000.14,0000.53,-000.08,0000.74,26.6,01.9,0662.3,34.7
2016-10-06T02:20:00Z,0000380,00000600,0000.61,-000.11,0000.16,0000.34,0000.30,-000.03,-000.05,0000.23,0000.15,26.6,01.8,0662.3,34.7
2016-10-06T02:21:00Z,0000380,00000600,0000.56,0000.35,0000.55,-000.03,0000.16,-000.05,0000.17,0000.05,0000.05,26.6,01.9,0662.4,34.7
2016-10-06T02:22:00Z,0000380,00000600,0001.05,0000.15,0000.73,0000.05,0000.22,0000.24,-000.05,-000.19,-000.54,26.6,01.9,0662.4,34.7
2016-10-06T02:23:00Z,0000380,00000600,0000.00,0000.19,0000.57,-000.02,0000.51,0000.10,0000.16,0000.22,0000.39,26.6,01.9,0662.3,34.7
2016-10-06T02:24:00Z,0000380,00000600,0000.59,0000.32,0000.43,-000.14,0000.45,-000.10,0000.09,0000.12,-000.09,26.7,01.9,0662.3,34.7
2016-10-06T02:25:00Z,0000380,00000600,0000.10,0000.96,0000.64,0000.30,0000.62,0000.02,-000.07,-000.04,0000.08,26.7,01.9,0662.3,34.7
2016-10-06T02:26:00Z,0000380,00000600,0000.82,0001.15,0000.30,0000.30,0000.21,0000.18,0000.00,0000.02,-000.33,26.7,01.9,0662.4,34.7
2016-10-06T02:27:00Z,0000380,00000600,0000.69,0001.02,0000.64,0000.16,0000.43,0000.19,0000.22,0000.05,0000.21,26.7,01.8,0662.3,34.7
2016-10-06T02:28:00Z,0000380,00000600,0000.37,0001.09,-000.10,0000.27,0000.33,-000.16,-000.26,-000.11,-000.07,26.7,01.9,0662.3,34.7
2016-10-06T02:29:00Z,0000380,00000600,-000.07,0000.38,0000.02,0000.61,0000.38,0000.14,0000.08,0000.06,-000.18,26.7,02.0,0662.3,34.7
2016-10-06T02:30:00Z,0000380,00000600,0000.09,0000.25,-000.23,-000.05,0000.05,0000.14,0000.11,0000.16,0000.65,26.7,01.8,0662.4,34.7
2016-10-06T02:31:00Z,0000380,00000600,0000.51,0000.56,0000.78,0000.24,0000.17,0000.08,-000.21,0000.10,-000.32,26.6,02.0,0662.3,34.7
2016-10-06T02:32:00Z,0000380,00000600,0000.63,0000.46,-000.02,-000.16,0000.48,0000.34,0000.17,-000.11,0000.30,26.6,01.9,0662.3,34.7
2016-10-06T02:33:00Z,0000380,00000600,-000.21,0000.56,0000.49,-000.51,0000.16,0000.29,-000.10,-000.02,-000.09,26.6,02.0,0662.4,34.7
2016-10-06T02:34:00Z,0000380,00000600,0000.63,0000.02,0000.31,0000.27,0000.45,-000.10,0000.19,0000.06,0000.11,26.5,01.9,0662.3,34.7
2016-10-06T02:35:00Z,0000380,00000600,0000.70,0000.16,-000.12,-000.11,0000.38,0000.26,0000.37,0000.03,0000.31,26.5,02.0,0662.3,34.7
2016-10-06T02:36:00Z,0000380,00000600,-000.24,0000.23,0000.23,-000.11,0000.00,0000.10,-000.18,0000.08,-000.02,26.5,02.0,0662.3,34.7
2016-10-06T02:37:00Z,0000380,00000600,-000.14,-000.22,0000.40,-000.21,0000.57,-000.08,-000.04,0000.22,-000.07,26.6,02.0,0662.3,34.7
2016-10-06T02:38:00Z,0000380,00000600,0000.51,0000.15,-000.13,-000.45,0000.27,-000.18,0000.26,-000.05,0000.15,26.6,01.9,0662.3,34.7
2016-10-06T02:39:00Z,0000380,00000600,0000.75,0000.88,0000.60,0000.18,0000.06,0000.06,0000.10,0000.15,-000.18,26.7,02.0,0662.2,34.7
2016-10-06T02:40:00Z,0000380,00000600,0001.07,0000.20,0000.37,0000.37,0000.16,0000.21,0000.13,-000.02,-000.10,26.7,01.9,0662.2,34.7
2016-10-06T02:41:00Z,0000380,00000600,0001.64,0001.01,0000.08,0000.03,-000.10,0000.29,-000.19,0000.01,-000.11,26.7,02.0,0662.3,34.7
2016-10-06T02:42:00Z,0000380,00000600,0000.98,0000.63,0000.56,0000.06,0000.62,0000.18,0000.11,-000.02,0000.20,26.7,01.9,0662.2,34.7
2016-10-06T02:43:00Z,0000380,00000600,0000.28,0000.68,0000.22,-000.34,0000.14,-000.05,0000.10,0000.05,0000.12,26.7,02.0,0662.3,34.7
2016-10-06T02:44:00Z,0000380,00000600,0000.37,0000.82,0000.17,0000.06,0000.14,0000.06,-000.39,0000.00,0000.09,26.6,02.0,0662.3,34.7
2016-10-06T02:45:00Z,0000380,00000600,-000.19,0000.70,0000.43,0000.16,0000.38,0000.10,0000.18,-000.06,-000.48,26.6,02.0,0662.3,34.7
2016-10-06T02:46:00Z,0000380,00000600,0000.72,0000.54,0000.91,0000.27,0000.17,0000.21,-000.18,-000.00,0000.25,26.6,02.0,0662.3,34.7
2016-10-06T02:47:00Z,0000380,00000600,0001.16,0000.83,0000.54,-000.56,-000.38,0000.06,0000.22,0000.23,-000.02,26.6,02.0,0662.3,34.7
2016-10-06T02:48:00Z,0000380,00000600,0000.85,0000.40,0000.83,0000.03,0000.48,0000.02,-000.13,-000.11,0000.25,26.6,02.0,0662.2,34.7
2016-10-06T02:49:00Z,0000380,00000600,0000.35,0000.62,0000.56,0000.00,0000.25,0000.18,0000.03,0000.02,0000.14,26.6,02.0,0662.2,34.7
2016-10-06T02:50:00Z,0000380,00000600,0000.79,0000.83,0000.31,0000.30,0000.33,0000.00,0000.25,-000.13,0000.35,26.5,02.0,0662.3,34.7
2016-10-06T02:51:00Z,0000380,00000600,0000.84,0000.09,0000.51,-000.24,0000.19,-000.05,-000.05,0000.18,-000.13,26.5,02.0,0662.3,34.7
2016-10-06T02:52:00Z,0000380,00000600,0000.72,0000.46,0000.13,0000.14,-000.02,-000.03,-000.10,-000.03,-000.22,26.6,02.0,0662.3,34.7
2016-10-06T02:53:00Z,0000380,00000600,0000.37,0000.04,0000.48,0000.08,0000.41,0000.26,0000.20,0000.41,0000.30,26.7,02.0,0662.2,34.7
2016-10-06T02:54:00Z,0000380,00000600,-001.18,0000.73,0000.39,-000.58,0000.72,-000.11,-000.03,-000.23,0000.09,26.7,02.0,0662.2,34.7
2016-10-06T02:55:00Z,0000380,00000600,0000.80,0000.25,0000.11,0000.13,0000.48,-000.08,0000.00,0000.12,-000.42,26.7,02.0,0662.3,34.7
2016-10-06T02:56:00Z,0000380,00000600,0001.60,0000.94,0000.60,-000.13,0000.10,0000.13,0000.00,0000.00,0000.08,26.8,01.9,0662.2,34.7
2016-10-06T02:57:00Z,0000380,40000600,,,,,,,,,,,,0662.2,34.7
2016-10-06T02:58:00Z,0000380,60000600,,,,,,,,,,26.7,01.8,0661.3,34.7
2016-10-06T02:59:00Z,0000380,20000600,,,,,,,,,,26.7,01.8,0661.2,34.7
2016-10-06T03:00:00Z,0000380,20000600,,,,,,,,,,26.7,01.8,0661.2,34.7
2016-10-06T03:01:00Z,0000380,20000600,,,,,,,,,,26.7,01.8,0661.2,34.7
2016-10-06T03:02:00Z,0000380,20000600,,,,,,,,,,26.7,01.8,0661.2,34.7
2016-10-06T03:03:00Z,0000380,60000600,,,,,,,,,,26.7,01.8,0661.2,34.7
2016-10-06T03:04:00Z,0000380,40000600,0000.40,0000.58,0000.24,0000.34,0000.24,0000.03,0000.27,0000.04,-000.37,26.7,01.9,0662.1,34.7
2016-10-06T03:05:00Z,0000380,00000600,0000.92,0001.09,0000.85,-000.21,0000.25,0000.30,0000.07,-000.10,0000.17,26.7,01.8,0662.2,34.7
2016-10-06T03:06:00Z,0000380,00000600,0000.61,0000.17,0000.23,0000.19,0000.33,0000.06,-000.15,-000.10,0000.28,26.7,01.8,0662.2,34.7
2016-10-06T03:07:00Z,0000380,00000600,0001.11,0000.02,0000.32,0000.51,0000.14,-000.13,0000.06,0000.31,0000.17,26.7,01.8,0662.2,34.7
2016-10-06T03:08:00Z,0000380,00000600,0000.75,0001.62,0000.88,0000.54,0000.13,0000.22,-000.19,0000.07,-000.37,26.8,01.8,0662.2,34.7
2016-10-06T03:09:00Z,0000380,00000600,0001.24,0000.64,0000.71,0000.24,0000.24,0000.11,-000.05,-000.25,0000.27,26.8,01.8,0662.1,34.7
2016-10-06T03:10:00Z,0000380,00000600,0001.18,0001.07,0000.45,0000.74,-000.05,0000.14,0000.15,0000.26,0000.10,26.9,01.7,0662.1,34.7
2016-10-06T03:11:00Z,0000380,00000600,0000.20,0001.17,0000.47,0000.22,0000.29,-000.22,0000.04,0000.15,-000.24,26.9,01.7,0662.0,34.7
2016-10-06T03:12:00Z,0000380,00000600,0001.79,0000.92,0000.60,0000.32,0000.37,0000.16,0000.18,-000.16,0000.05,26.9,01.8,0662.1,34.7